Regional Weather Roundup
Issued by NWS Little Rock, AR

Home | Current Version | Previous Version | Text Only | Print | Product List | Glossary On
Versions: 1 2 3 4 5 6 7 8 9 10 11 12 13 14 15 16 17 18 19 20 21 22 23 24 25 26 27 28 29 30 31 32 33 34 35 36 37 38 39 40 41 42 43 44 45 46 47 48 49 50
000
ASUS44 KLZK 252105
RWRLZK

WEATHER ROUNDUP FOR ARKANSAS
NATIONAL WEATHER SERVICE LITTLE ROCK AR
400 PM CDT FRI JUL 25 2014

NOTE: "FAIR" INDICATES FEW OR NO CLOUDS BELOW 12,000 FEET WITH NO
SIGNIFICANT WEATHER AND/OR OBSTRUCTIONS TO VISIBILITY.

ARZ001-003-010-029-252200-
NORTHWEST ARKANSAS

CITY           SKY/WX    TMP DP  RH WIND       PRES   REMARKS
FAYETTEVILLE   SUNNY     87  70  56 S13       29.98F HX  92
FORT SMITH     SUNNY     91  70  49 SW8       29.94F HX  96
HARRISON       SUNNY     87  72  60 S13       29.99F HX  93
BENTONVILLE    SUNNY     90  72  55 S12       29.99S HX  96
ROGERS         SUNNY     91  68  46 SW12      29.98F HX  95
SILOAM SPGS    SUNNY     90  70  51 SW14      29.97F HX  95
HIGHFILL       SUNNY     90  71  53 S14       29.97F HX  96
SPRINGDALE     SUNNY     90  70  51 SW12      30.00F HX  95
$$

ARZ004-005-016-252200-
NORTH CENTRAL ARKANSAS

CITY           SKY/WX    TMP DP  RH WIND       PRES   REMARKS
BATESVILLE     SUNNY     86  68  54 S6        30.00S HX  89
FLIPPIN        MOSUNNY   88  72  58 SE7       29.98F HX  94
MTN HOME       SUNNY     87  71  58 S7        29.98F HX  93
$$

ARZ040-041-252200-
WEST CENTRAL ARKANSAS

CITY           SKY/WX    TMP DP  RH WIND       PRES   REMARKS
MENA           MOSUNNY   88  73  62 CALM      30.01F HX  96
MOUNT IDA      MOSUNNY   85  71  63 VRB3      29.98F HX  90
$$

ARZ009-017-025-026-028-252200-
NORTHEAST ARKANSAS

CITY           SKY/WX    TMP DP  RH WIND       PRES   REMARKS
CORNING        LGT RAIN  82  64  54 E5        30.03R
JONESBORO      SUNNY     84  63  49 SE6       30.01S HX  85
NEWPORT        SUNNY     85  67  54 S3        30.02R HX  87
WALNUT RIDGE   SUNNY     82  46  28 SE5       30.01S
BLYTHEVILLE    MOSUNNY   85  67  54 N7        30.04R HX  87
$$

ARZ022-023-033-042-044-252200-
CENTRAL ARKANSAS

CITY           SKY/WX    TMP DP  RH WIND       PRES   REMARKS
LITTLE ROCK    MOSUNNY   87  67  51 VRB3      29.99F HX  90
N LITTLE ROCK  MOSUNNY   86  72  62 SW7       29.99F HX  91
JACKSONVILLE   SUNNY     87  71  58 VRB5      29.99F HX  93
SEARCY         SUNNY     87  71  58 W3        30.00F HX  92
HOT SPRINGS    MOSUNNY   86  70  58 SW5       30.00F HX  90
RUSSELLVILLE   MOSUNNY   87  72  60 VRB7      29.97F HX  93
CLINTON        PTSUNNY   88  73  62 SE3       30.00S HX  96
$$

ARZ036-252200-
EAST ARKANSAS

CITY           SKY/WX    TMP DP  RH WIND       PRES   REMARKS
WEST MEMPHIS   SUNNY     86  63  45 NE5       29.99F HX  87
$$

ARZ050-053-066-070-073-252200-
SOUTHWEST ARKANSAS

CITY           SKY/WX    TMP DP  RH WIND       PRES   REMARKS
ARKADELPHIA    FAIR      90  74  59 S5        29.98F HX  99
CAMDEN         PTSUNNY   90  70  51 SW3       29.99S HX  95
TEXARKANA      MOSUNNY   89  71  55 VRB3      29.98F HX  95
EL DORADO      MOSUNNY   88  73  61 SW5       29.99F HX  95
DE QUEEN       MOSUNNY   88  74  63 S7        29.95F HX  96
$$

ARZ056-057-069-252200-
SOUTHEAST ARKANSAS

CITY           SKY/WX    TMP DP  RH WIND       PRES   REMARKS
PINE BLUFF     MOSUNNY   87  68  52 CALM      29.99F HX  90
STUTTGART      SUNNY     86  70  58 SW6       30.01F HX  90
MONTICELLO     SUNNY     88  68  51 W5        29.99F HX  91

$$




USA.gov is the U.S. government's official web portal to all federal, state and local government web resources and services.